Simultaneous Nadir Overpasses (SNOs) Predictions

Prediction of SNOs between LANDSAT-8 and NOAA-19 Satellite Orbit:

Table of predicted SNOs for the next 14.0 days since TLE Epoch: 8/30/2014
Index Date (LANDSAT-8) Time (LANDSAT-8) Lat,Lon (LANDSAT-8) SZA (LANDSAT-8 ) Date (NOAA-19) Time (NOAA-19) Lat,Lon (NOAA-19) SZA (NOAA-19 ) Distance(km) Time Diff (sec)
1 08/31/2014 13:02:28 72.21, -15.92 63.56 08/31/2014 13:01:39 72.20, -15.88 63.56 1.65 49
2 08/31/2014 13:51:58 -72.09, 151.51 116.54 08/31/2014 13:52:39 -72.11, 151.54 116.52 2.30 41
3 09/02/2014 17:46:44 72.40, -86.66 64.55 09/02/2014 17:45:32 72.50, -87.41 64.66 27.58 72
4 09/02/2014 18:36:16 -72.17, 80.57 115.67 09/02/2014 18:36:27 -72.19, 80.48 115.65 3.46 11
5 09/04/2014 23:20:36 -72.19, 9.52 114.84 09/04/2014 23:20:14 -72.22, 9.50 114.81 2.74 22
6 09/05/2014 00:10:03 72.10, 177.00 65.09 09/05/2014 00:11:14 72.08, 177.02 65.06 2.64 71
7 09/07/2014 04:04:56 -72.26, -61.45 113.95 09/07/2014 04:04:01 -72.26, -61.50 113.96 1.86 55
8 09/07/2014 04:54:24 72.11, 105.93 65.91 09/07/2014 04:55:02 72.14, 105.97 65.94 3.37 38
9 09/09/2014 08:49:08 -72.80,-131.53 112.58 09/09/2014 08:47:59 -72.85,-133.67 112.53 70.33 69
10 09/09/2014 09:38:45 72.17, 34.95 66.80 09/09/2014 09:38:49 72.16, 35.02 66.79 2.63 4
11 09/09/2014 10:28:28 -71.37,-158.79 114.00 09/09/2014 10:29:34 -71.42,-156.32 113.94 88.01 66
12 09/11/2014 14:23:07 72.22, -36.06 67.68 09/11/2014 14:22:37 72.24, -36.06 67.70 1.85 30
